Regional Weather Roundup
Issued by NWS

Home | Current Version | Previous Version | Text Only | Print | Product List | Glossary On
Versions: 1 2 3 4 5 6 7 8 9 10 11 12 13 14 15 16 17 18 19 20 21 22 23 24 25 26 27 28 29 30 31 32 33 34 35 36 37 38 39 40 41 42 43 44 45 46 47 48 49 50
000
ASUS43 KOAX 181910
RWRNE

WEATHER ROUNDUP FOR NEBRASKA
NATIONAL WEATHER SERVICE OMAHA NE
200 PM CDT FRI APR 18 2014

NOTES: SATELLITE DATA IS BEING USED TO AUGMENT CLOUD COVER ABOVE
       12000 FEET.
       "FAIR" INDICATES FEW OR NO CLOUDS BELOW 12,000 FEET WITH NO
       SIGNIFICANT WEATHER AND/OR OBSTRUCTIONS TO VISIBILITY.

  * THESE STATIONS DO NOT REPORT WEATHER SUCH AS RAIN...SNOW OR FOG.

NEZ001>004-019>022-054>056-182000-
NEBRASKA PANHANDLE

CITY           SKY/WX    TMP DP  RH WIND       PRES   REMARKS
SCOTTSBLUFF    CLOUDY    77  32  19 SW15G22   29.85F
ALLIANCE       CLOUDY    74  38  27 S20       29.87F
CHADRON        CLOUDY    74  37  26 W15G22    29.78F
KIMBALL        CLOUDY    73  24  16 S18       29.92F
SIDNEY         CLOUDY    73  33  23 S16       29.93F
$$

NEZ057>060-069>072-079>082-182000-
SOUTHWEST NEBRASKA

CITY           SKY/WX    TMP DP  RH WIND       PRES   REMARKS
NORTH PLATTE   MOSUNNY   68  39  34 S25G33    29.97F
IMPERIAL       MOSUNNY   72  38  29 S20G26    29.96F
LEXINGTON      MOSUNNY   67  44  43 S25G32    30.03F
MCCOOK         SUNNY     69  41  36 S24G31    30.01F
OGALLALA       CLOUDY    70  36  28 S20G25    29.94F
$$

NEZ005>010-023>029-035>040-094-182000-
NORTH CENTRAL NEBRASKA

CITY           SKY/WX    TMP DP  RH WIND       PRES   REMARKS
VALENTINE      PTSUNNY   75  32  20 S29G37    29.85F
AINSWORTH      MOSUNNY   72  37  27 S29G36    29.90S
BROKEN BOW     MOSUNNY   64  42  44 S25G36    30.00F
O`NEILL        SUNNY     69  37  30 S28G37    29.99F
ORD            SUNNY     66  40  38 S26G37    30.01F
THEDFORD       PTSUNNY   70  34  27 S28G35    29.94F
$$

NEZ041-046>049-061>064-073>077-083>087-182000-
SOUTH CENTRAL NEBRASKA

CITY           SKY/WX    TMP DP  RH WIND       PRES   REMARKS
GRAND ISLAND   MOSUNNY   66  42  41 S26G33    30.09F
AURORA         MOSUNNY   66  43  42 S22G32    30.11F
HASTINGS       MOSUNNY   65  40  39 S17G32    30.09F
HEBRON         MOSUNNY   67  41  39 S20G26    30.15F
HOLDREGE       MOSUNNY   65  41  40 S29G35    30.06F
KEARNEY *      MOSUNNY   66  43  42 S28G35    30.07F
YORK           MOSUNNY   66  41  39 S22       30.13F
$$

NEZ011>018-030>034-042>045-182000-
NORTHEAST NEBRASKA

CITY           SKY/WX    TMP DP  RH WIND       PRES   REMARKS
NORFOLK        SUNNY     65  39  38 S23G37    30.09F
ALBION         SUNNY     66  38  36 S30G36    30.08F
BLAIR          SUNNY     63  33  32 SE15G23   30.19F
COLUMBUS *     SUNNY     64  39  39 S22G31    30.14F
FREMONT        SUNNY     65  34  31 SE18G26   30.17F
TEKAMAH        SUNNY     65  33  30 S20G29    30.18F
$$

NEZ050>053-065>068-078-088>093-182000-
SOUTHEAST NEBRASKA

CITY           SKY/WX    TMP DP  RH WIND       PRES   REMARKS
LINCOLN        SUNNY     68  38  33 S17G28    30.17F
OMAHA EPPLEY   MOSUNNY   64  34  32 S20       30.19F
BEATRICE       SUNNY     67  38  35 S13G21    30.17F
NEBRASKA CITY  SUNNY     64  36  35 S13G18    30.22F
PLATTSMOUTH    SUNNY     64  32  29 SE15G21   30.21F
$$

NEZ044-045-051>053-067-182000-
OMAHA AREA

CITY           SKY/WX    TMP DP  RH WIND       PRES   REMARKS
OMAHA EPPLEY   MOSUNNY   64  34  32 S20       30.19F
BLAIR          SUNNY     63  33  32 SE15G23   30.19F
FREMONT        SUNNY     65  34  31 SE18G26   30.17F
MILLARD        SUNNY     62  36  37 SE20      30.19F
OFFUTT AFB     SUNNY     64  36  35 SE15G21   30.20F
PLATTSMOUTH    SUNNY     64  32  29 SE15G21   30.21F
WAHOO          FAIR      65  33  30 S18G31    30.17F
$$



USA.gov is the U.S. government's official web portal to all federal, state and local government web resources and services.